This is the latest recevied weather packets stored in our database for station/object K7MT-WX. If no packets are shown the sender has not sent any weather packets the latest 10 day(s).
| Time | Temp. | Humidity | Pressure | Rain* | Wind** | Luminosity | Snow |
|---|---|---|---|---|---|---|---|
| 1788556969 | 24.44° C | 33% | 1010.8 hPa | 0 mm | - | - | - |
| 1788556069 | 25° C | 35% | 1010.9 hPa | 0 mm | - | - | - |
| 1788555169 | 24.44° C | 36% | 1010.9 hPa | 0 mm | - | - | - |
| 1788554269 | 24.44° C | 36% | 1010.8 hPa | 0 mm | - | - | - |
| 1788553369 | 24.44° C | 36% | 1010.8 hPa | 0 mm | - | - | - |
| 1788552469 | 23.89° C | 35% | 1010.8 hPa | 0 mm | - | - | - |
| 1788551569 | 23.89° C | 37% | 1010.8 hPa | 0 mm | - | - | - |
| 1788550669 | 24.44° C | 38% | 1010.7 hPa | 0 mm | - | - | - |
| 1788549769 | 24.44° C | 36% | 1010.6 hPa | 0 mm | - | - | - |
| 1788548869 | 24.44° C | 37% | 1010.6 hPa | 0 mm | - | - | - |
| 1788547969 | 23.33° C | 38% | 1010.7 hPa | 0 mm | - | - | - |
| 1788547069 | 22.78° C | 40% | 1010.7 hPa | 0 mm | - | - | - |
| 1788546169 | 23.33° C | 40% | 1010.6 hPa | 0 mm | - | - | - |
| 1788545269 | 22.22° C | 40% | 1010.7 hPa | 0 mm | - | - | - |
| 1788544369 | 21.11° C | 41% | 1010.7 hPa | 0 mm | - | - | - |
| 1788543469 | 21.11° C | 44% | 1010.7 hPa | 0 mm | - | - | - |
| 1788542569 | 20.56° C | 44% | 1010.7 hPa | 0 mm | - | - | - |
| 1788541669 | 19.44° C | 49% | 1010.8 hPa | 0 mm | - | - | - |
| 1788540769 | 19.44° C | 49% | 1010.8 hPa | 0 mm | - | - | - |
| 1788539869 | 19.44° C | 47% | 1011.1 hPa | 0 mm | - | - | - |
| 1788538969 | 18.89° C | 49% | 1011.2 hPa | 0 mm | - | - | - |
| 1788538069 | 18.89° C | 49% | 1011.1 hPa | 0 mm | - | - | - |
| 1788537169 | 18.33° C | 50% | 1011 hPa | 0 mm | - | - | - |
| 1788536269 | 17.78° C | 51% | 1010.9 hPa | 0 mm | - | - | - |
| 1788535369 | 17.22° C | 54% | 1010.7 hPa | 0 mm | - | - | - |
* Rain latest hour (hover to see other rain measurements)
** Current wind speed in m/s (hover to see current wind gust speed)